[[{"header":{"parameterUnit":"m.s-1","parameterCategory":1,"la1":30.2991,"la2":30.254,"lo1":-89.0895,"lo2":-89.0444,"dy":0.0017,"dx":0.0017,"nx":28,"ny":28,"refTime":"2025-04-03T03:00:00:Z","depth":0,"parameterNumber":2,"parameterNumberName":"U-component_of_WINDS"},"data":[0,0,0,0,0,0,0,0,0,0,0,0,0,0,0,0,0,0,0,0,0,0,0,0,0,0,0,0,0,0,0,0,0,0,0,0,0,0,0,0,0,0,0,0,0,0,0,0,0,0,0,0,0,0,0,0,0,0,-3.8774,-3.8775,0,-3.8895,-3.8897,-3.8898,-3.8934,-3.8934,-3.8933,-3.8933,-3.9057,-3.9061,-3.9065,0,0,0,0,0,0,0,0,0,0,0,0,0,-3.8572,-3.8576,-3.8773,-3.8775,-3.8776,-3.8895,-3.8897,-3.8899,-3.8935,-3.8934,-3.8933,-3.8932,-3.9056,-3.906,-3.9065,0,0,0,0,0,0,0,0,0,0,0,0,0,-3.8673,-3.8577,-3.8773,-3.8809,-3.8813,-3.8895,-3.8897,-3.8899,-3.8935,-3.8934,-3.8933,-3.8932,-3.9054,-3.906,-3.9066,-3.912,0,0,-3.9083,-3.9086,0,0,0,0,0,0,0,0,-3.8668,-3.8681,-3.8802,-3.8806,-3.8812,-3.8899,-3.8872,-3.8973,-3.8935,-3.8889,-3.8933,-3.8931,-3.9005,-3.9015,-3.904,-3.9126,-3.9132,-3.9084,-3.9087,-3.909,-3.9092,0,0,0,0,0,0,0,-3.8661,-3.8676,-3.8822,-3.8804,-3.881,-3.8819,-3.8832,-3.8891,-3.8951,-3.8892,-3.8895,-3.8909,-3.9007,-3.9034,-3.9043,-3.9133,-3.9084,-3.9089,-3.9093,-3.9095,-3.9272,-3.9273,0,0,0,0,0,0,-3.8648,-3.867,-3.8818,-3.8825,-3.8736,-3.8823,-3.8838,-3.8872,-3.895,-3.8961,-3.891,-3.8911,-3.9024,-3.9036,-3.9047,-3.9117,-3.909,-3.9095,-3.9099,-3.9271,-3.9272,-3.9273,0,0,0,0,0,0,-3.8643,-3.866,-3.8813,-3.8748,-3.8769,-3.8828,-3.8865,-3.8875,-3.8901,-3.8963,-3.8974,-3.8926,-3.9024,-3.9039,-3.9102,-3.9121,-3.9098,-3.9103,-3.9269,-3.9271,-3.9273,-3.9255,0,0,0,0,0,0,-3.8637,-3.8659,-3.868,-3.8749,-3.8772,-3.8865,-3.8866,-3.8878,-3.8911,-3.8913,-3.8981,-3.8992,-3.9025,-3.9093,-3.9108,-3.9129,-3.9108,-3.9268,-3.927,-3.9272,-3.9254,-3.9256,-3.9258,0,0,0,0,0,-3.863,-3.867,-3.8681,-3.8698,-3.88,-3.8866,-3.888,-3.8917,-3.8913,-3.8934,-3.8975,-3.8989,-3.9117,-3.9099,-3.9116,-3.9139,-3.9267,-3.9269,-3.9272,-3.9254,-3.9256,-3.9258,0,0,0,0,0,0,-3.8601,-3.8679,-3.8692,-3.8756,-3.8804,-3.8872,-3.8901,-3.8918,-3.8968,-3.8968,-3.9012,-3.9027,-3.9087,-3.912,-3.9098,-3.9197,-3.9193,-3.9199,-3.9173,-3.9176,-3.9177,-3.9167,-3.9113,0,0,0,0,0,-3.8602,-3.865,-3.8716,-3.8766,-3.8789,-3.8841,-3.8871,-3.8896,-3.8948,-3.8968,-3.9013,-3.9063,-3.9114,-3.9147,-3.9198,-3.926,-3.9276,-3.9285,-3.9286,-3.9288,-3.9292,-3.9327,-3.9332,-3.9282,-3.9282,-3.9282,0,0,-3.8605,-3.8654,-3.8681,-3.8761,-3.8801,-3.885,-3.8858,-3.8908,-3.8945,-3.8976,-3.9038,-3.9073,-3.9131,-3.9194,-3.9224,-3.9223,-3.9309,-3.9291,-3.9291,-3.9295,-3.9331,-3.9335,-3.9339,-3.9284,-3.9284,-3.9283,0,0,-3.8634,-3.8676,-3.8722,-3.8762,-3.8824,-3.8858,-3.8869,-3.8935,-3.896,-3.9023,-3.9047,-3.9092,-3.9179,-3.922,-3.9252,-3.9299,-3.9314,-3.9314,-3.9323,-3.9357,-3.9361,-3.9364,-3.938,-3.9386,-3.9319,-3.9319,-3.9319,0,-3.8629,-3.8703,-3.8743,-3.8793,-3.8827,-3.8859,-3.8906,-3.8943,-3.9018,-3.9041,-3.904,-3.9151,-3.9193,-3.9266,-3.9277,-3.9302,-3.9316,-3.9306,-3.9357,-3.9361,-3.9365,-3.9381,-3.9387,-3.9318,-3.9318,-3.9318,-3.9318,0,-3.8694,-3.8745,-3.8775,-3.8846,-3.8884,-3.8932,-3.898,-3.9014,-3.9036,-3.9071,-3.9135,-3.9187,-3.9248,-3.9268,-3.929,-3.9344,-3.9342,-3.9348,-3.9344,-3.9369,-3.9384,-3.939,-3.9318,-3.9318,-3.9318,-3.9318,0,0,-3.8706,-3.8801,-3.8811,-3.8844,-3.8914,-3.8955,-3.9005,-3.9066,-3.9093,-3.9145,-3.9187,-3.9262,-3.9269,-3.9305,-3.9332,-3.9362,-3.9395,-3.9365,-3.9367,-3.9368,-3.9458,-3.9452,-3.9458,-3.9407,-3.9408,-3.941,-3.9453,0,-3.8743,-3.8833,-3.8872,-3.8944,-3.8991,-3.9023,-3.9067,-3.9115,-3.9149,-3.9195,-3.9233,-3.9285,-3.929,-3.9312,-3.9344,-3.9384,-3.9414,-3.9382,-3.9447,-3.9448,-3.9429,-3.9466,-3.9459,-3.9498,-3.9459,-3.946,-3.9461,0,-3.8798,-3.885,-3.8926,-3.8992,-3.9014,-3.9052,-3.9111,-3.9155,-3.921,-3.9233,-3.9275,-3.9301,-3.9355,-3.9349,-3.9424,-3.9401,-3.9431,-3.9455,-3.9457,-3.9463,-3.9455,-3.9472,-3.9511,-3.9516,-3.9471,-3.947,-3.947,0,-3.8798,-3.8887,-3.8945,-3.8972,-3.905,-3.9076,-3.911,-3.9165,-3.92,-3.9252,-3.9275,-3.9333,-3.9364,-3.9408,-3.9449,-3.9441,-3.952,-3.9518,-3.954,-3.9539,-3.9554,-3.9552,-3.9597,-3.9575,-3.9575,-3.9575,-3.9575,0,-3.8835,-3.888,-3.8946,-3.8981,-3.9033,-3.9078,-3.9128,-3.9164,-3.9213,-3.9256,-3.9288,-3.9328,-3.938,-3.9427,-3.946,-3.9517,-3.9531,-3.9551,-3.9559,-3.9547,-3.9544,-3.9565,-3.9563,-3.9577,-3.9576,-3.9576,-3.9576,0,-3.8842,-3.8888,-3.8953,-3.9022,-3.9041,-3.9076,-3.9136,-3.9171,-3.9208,-3.9262,-3.9277,-3.9334,-3.9391,-3.9437,-3.9511,-3.9533,-3.9593,-3.9602,-3.9573,-3.9577,-3.9597,-3.9594,-3.9655,-3.9666,-3.9638,-3.9638,-3.9638,0,-3.8862,-3.8898,-3.8971,-3.9002,-3.9036,-3.9086,-3.9121,-3.9167,-3.9202,-3.927,-3.9297,-3.9356,-3.9406,-3.9495,-3.9543,-3.96,-3.9611,-3.9629,-3.9619,-3.9607,-3.961,-3.9607,-3.961,-3.9629,-3.9629,-3.9629,-3.9629,0,-3.8891,-3.8912,-3.8962,-3.902,-3.9062,-3.911,-3.9158,-3.9182,-3.9237,-3.9276,-3.9334,-3.9372,-3.9449,-3.9507,-3.9569,-3.9605,-3.9626,-3.9632,-3.964,-3.9628,-3.9609,-3.9618,-3.9574,-3.963,-3.963,-3.9629,-3.9629,-3.9629,-3.8905,-3.8938,-3.8995,-3.905,-3.9092,-3.9137,-3.9174,-3.9215,-3.9264,-3.933,-3.9354,-3.9414,-3.947,-3.9557,-3.9592,-3.964,-3.9642,-3.9654,-3.9657,-3.9659,-3.9657,-3.9603,-3.9652,-3.9652,-3.9652,-3.9652,-3.9652,0,-3.8935,-3.8974,-3.9024,-3.9091,-3.9134,-3.9151,-3.9206,-3.9241,-3.9293,-3.9344,-3.9392,-3.946,-3.9517,-3.957,-3.963,-3.9658,-3.9669,-3.9672,-3.9669,-3.9677,-3.9652,-3.9638,-3.9662,-3.9662,-3.9662,-3.9662,-3.9662,-3.9662,-3.8956,-3.9013,-3.9041,-3.912,-3.9158,-3.9217,-3.9247,-3.9289,-3.933,-3.9403,-3.9451,-3.9486,-3.9538,-3.9602,-3.9655,-3.9669,-3.9689,-3.9689,-3.9706,-3.9681,-3.9679,-3.9677,-3.9665,-3.9693,-3.9694,-3.9727,-3.9727,-3.9728]},{"header":{"parameterUnit":"m.s-1","parameterCategory":1,"la1":30.2991,"la2":30.254,"lo1":-89.0895,"lo2":-89.0444,"dy":0.0017,"dx":0.0017,"nx":28,"ny":28,"refTime":"2025-04-03T03:00:00:Z","depth":0,"parameterNumber":3,"parameterNumberName":"V-component_of_WINDS"},"data":[0,0,0,0,0,0,0,0,0,0,0,0,0,0,0,0,0,0,0,0,0,0,0,0,0,0,0,0,0,0,0,0,0,0,0,0,0,0,0,0,0,0,0,0,0,0,0,0,0,0,0,0,0,0,0,0,0,0,5.5865,5.5866,0,5.5985,5.5986,5.5987,5.5977,5.5975,5.5973,5.5971,5.6093,5.6097,5.6102,0,0,0,0,0,0,0,0,0,0,0,0,0,5.5629,5.5633,5.5865,5.5867,5.5868,5.5984,5.5986,5.5988,5.5977,5.5975,5.5973,5.597,5.6091,5.6097,5.6103,0,0,0,0,0,0,0,0,0,0,0,0,0,5.5738,5.5635,5.5865,5.5877,5.5879,5.5984,5.5986,5.5988,5.5977,5.5975,5.5972,5.5969,5.6089,5.6096,5.6104,5.6204,0,0,5.6126,5.6129,0,0,0,0,0,0,0,0,5.5732,5.5747,5.5873,5.5876,5.5879,5.5963,5.5947,5.6061,5.5978,5.594,5.5971,5.5968,5.6052,5.6062,5.609,5.621,5.6215,5.6127,5.6131,5.6134,5.6137,0,0,0,0,0,0,0,5.5724,5.5742,5.5912,5.5875,5.5879,5.5877,5.5889,5.5969,5.601,5.5943,5.5943,5.5957,5.6053,5.6083,5.6093,5.6217,5.6127,5.6133,5.6138,5.6141,5.643,5.6433,0,0,0,0,0,0,5.5714,5.5735,5.5909,5.5916,5.5797,5.5883,5.5897,5.5939,5.6009,5.6017,5.5959,5.5956,5.6072,5.6084,5.6097,5.6223,5.6134,5.6141,5.6146,5.6426,5.643,5.6434,0,0,0,0,0,0,5.5709,5.5729,5.5904,5.5826,5.5848,5.589,5.5937,5.5943,5.5973,5.6021,5.6028,5.5983,5.607,5.6087,5.6179,5.6227,5.6145,5.6151,5.6423,5.6428,5.6432,5.6474,0,0,0,0,0,0,5.5702,5.5728,5.5766,5.5827,5.5852,5.5983,5.594,5.5947,5.5986,5.5983,5.6045,5.6053,5.6069,5.6168,5.6186,5.6236,5.6157,5.6418,5.6425,5.643,5.6468,5.6479,5.6489,0,0,0,0,0,5.5694,5.5772,5.5768,5.5789,5.59,5.5986,5.6,5.6018,5.599,5.603,5.6061,5.6051,5.6218,5.6177,5.6198,5.6251,5.6415,5.6423,5.643,5.6464,5.6477,5.6489,0,0,0,0,0,0,5.5714,5.578,5.5776,5.5876,5.5926,5.5984,5.6034,5.6031,5.6089,5.6084,5.6103,5.6117,5.6211,5.6239,5.6192,5.6354,5.6313,5.6325,5.6332,5.6345,5.6355,5.6347,5.6163,0,0,0,0,0,5.573,5.5794,5.5848,5.5931,5.5956,5.5991,5.6028,5.6038,5.609,5.6111,5.6148,5.6199,5.6264,5.6306,5.6367,5.6472,5.6487,5.6518,5.6529,5.6537,5.6548,5.6609,5.6625,5.6458,5.6458,5.6457,0,0,5.5764,5.5808,5.5847,5.5936,5.5975,5.6042,5.6008,5.6079,5.6129,5.6121,5.6212,5.6241,5.6299,5.6399,5.6445,5.6426,5.6597,5.6546,5.6553,5.6559,5.6618,5.6634,5.6648,5.6463,5.6462,5.6461,0,0,5.5861,5.5899,5.5974,5.6016,5.6077,5.61,5.6118,5.6177,5.6198,5.6288,5.6285,5.6345,5.6454,5.6497,5.6533,5.665,5.6645,5.6669,5.6724,5.6784,5.6797,5.6809,5.6854,5.687,5.6679,5.6679,5.668,0,5.5895,5.5996,5.6013,5.6086,5.6127,5.6124,5.6202,5.624,5.6318,5.6347,5.6324,5.6465,5.6503,5.6615,5.6644,5.6672,5.6696,5.6663,5.6794,5.6806,5.6817,5.6861,5.6877,5.6682,5.6682,5.6682,5.6681,0,5.6037,5.6107,5.616,5.6238,5.6284,5.6359,5.6389,5.6434,5.644,5.6466,5.6561,5.6607,5.668,5.6707,5.6712,5.6821,5.6808,5.6789,5.675,5.6836,5.6877,5.6894,5.6687,5.6685,5.6685,5.6684,0,0,5.6149,5.6238,5.6257,5.6294,5.6363,5.6417,5.6493,5.6565,5.6605,5.6659,5.6725,5.682,5.6804,5.6845,5.6856,5.6908,5.7003,5.6884,5.6886,5.6907,5.7129,5.7145,5.7163,5.6999,5.7002,5.7004,5.7125,0,5.6255,5.639,5.641,5.6529,5.6596,5.6595,5.6662,5.6712,5.6739,5.68,5.6829,5.6897,5.687,5.6895,5.6947,5.698,5.7048,5.6971,5.7062,5.7065,5.705,5.7184,5.72,5.7312,5.7141,5.7144,5.7146,0,5.6397,5.6458,5.6584,5.6648,5.6676,5.6735,5.6806,5.6863,5.6921,5.6937,5.6985,5.699,5.707,5.7026,5.7138,5.7086,5.7124,5.7146,5.7151,5.7162,5.7112,5.7202,5.7348,5.7366,5.7171,5.7169,5.7167,0,5.6471,5.6583,5.6675,5.6706,5.6781,5.6824,5.6857,5.6911,5.6955,5.7016,5.7045,5.7114,5.7153,5.7207,5.7231,5.7196,5.7344,5.73,5.7361,5.7361,5.7394,5.7392,5.7551,5.7414,5.7413,5.7413,5.7413,0,5.6589,5.6667,5.671,5.6767,5.6855,5.6877,5.6965,5.6996,5.7046,5.711,5.7112,5.7172,5.72,5.7264,5.7284,5.7376,5.7392,5.7409,5.7414,5.7411,5.7409,5.7438,5.7432,5.7417,5.7416,5.7416,5.7415,0,5.6687,5.6718,5.6819,5.6882,5.69,5.6963,5.7018,5.7074,5.7101,5.7182,5.7202,5.7245,5.7321,5.7351,5.7443,5.7457,5.7565,5.7561,5.7546,5.7548,5.7609,5.7604,5.7794,5.7822,5.7663,5.7664,5.7666,0,5.6762,5.6823,5.6894,5.6937,5.6973,5.7042,5.7087,5.7112,5.7159,5.7231,5.7279,5.7356,5.7418,5.7541,5.7581,5.7653,5.7653,5.7715,5.7664,5.766,5.7659,5.7656,5.7664,5.7725,5.7727,5.7728,5.7729,0,5.6892,5.6906,5.6971,5.7044,5.7098,5.7156,5.7212,5.7247,5.7281,5.7334,5.7413,5.7462,5.7559,5.7636,5.771,5.7745,5.7744,5.7745,5.7763,5.7762,5.7752,5.7762,5.7575,5.7741,5.774,5.7739,5.7738,5.7738,5.6984,5.7039,5.7099,5.7173,5.7219,5.7272,5.7329,5.7364,5.743,5.7512,5.7522,5.7608,5.7667,5.7767,5.7805,5.7874,5.7858,5.7883,5.7891,5.7898,5.7904,5.7739,5.7887,5.7887,5.7886,5.7886,5.7886,0,5.7118,5.7157,5.7225,5.7305,5.7364,5.7357,5.742,5.747,5.7546,5.7601,5.7664,5.7757,5.7832,5.7879,5.7955,5.8001,5.8003,5.8021,5.8019,5.8028,5.7912,5.789,5.8019,5.8019,5.8019,5.8018,5.8018,5.8018,5.7195,5.729,5.7311,5.743,5.7468,5.7553,5.759,5.764,5.7685,5.7789,5.7852,5.7882,5.7935,5.8016,5.8086,5.8098,5.8127,5.8147,5.8158,5.8049,5.8036,5.8023,5.8002,5.8152,5.8153,5.8269,5.827,5.8271]}]]